TimeCST,TemperatureF,Dew PointF,Humidity,Sea Level PressureIn,VisibilityMPH,Wind Direction,Wind SpeedMPH,Gust SpeedMPH,PrecipitationIn,Events,Conditions,WindDirDegrees,DateUTC
12:15 AM,-14.8,-18.4,84,30.19,10.0,Calm,Calm,-,N/A,,Clear,0,2013-01-23 06:15:00
12:35 AM,-14.8,-20.2,77,30.18,10.0,Calm,Calm,-,N/A,,Clear,0,2013-01-23 06:35:00
12:55 AM,-14.8,-22.0,70,30.17,10.0,Calm,Calm,-,N/A,,Clear,0,2013-01-23 06:55:00
1:15 AM,-14.8,-20.2,77,30.17,10.0,Calm,Calm,-,N/A,,Clear,0,2013-01-23 07:15:00
1:35 AM,-16.6,-22.0,76,30.17,10.0,Calm,Calm,-,N/A,,Clear,0,2013-01-23 07:35:00
1:55 AM,-16.6,-22.0,76,30.17,10.0,Calm,Calm,-,N/A,,Clear,0,2013-01-23 07:55:00
2:15 AM,-16.6,-22.0,76,30.17,10.0,Calm,Calm,-,N/A,,Scattered Clouds,0,2013-01-23 08:15:00
2:35 AM,-14.8,-22.0,70,30.17,10.0,Calm,Calm,-,N/A,,Mostly Cloudy,0,2013-01-23 08:35:00
2:55 AM,-14.8,-18.4,84,30.16,10.0,Calm,Calm,-,N/A,,Overcast,0,2013-01-23 08:55:00
3:15 AM,-13.0,-18.4,77,30.16,10.0,Calm,Calm,-,N/A,,Overcast,0,2013-01-23 09:15:00
3:35 AM,-13.0,-18.4,77,30.15,10.0,Calm,Calm,-,N/A,,Overcast,0,2013-01-23 09:35:00
3:55 AM,-13.0,-16.6,84,30.14,10.0,Calm,Calm,-,N/A,,Overcast,0,2013-01-23 09:55:00
4:15 AM,-11.2,-16.6,77,30.13,10.0,Calm,Calm,-,N/A,,Overcast,0,2013-01-23 10:15:00
4:35 AM,-11.2,-16.6,77,30.13,10.0,Calm,Calm,-,N/A,,Overcast,0,2013-01-23 10:35:00
4:55 AM,-11.2,-16.6,77,30.12,10.0,Calm,Calm,-,N/A,,Overcast,0,2013-01-23 10:55:00
5:15 AM,-9.4,-14.8,77,30.12,10.0,Calm,Calm,-,N/A,,Overcast,0,2013-01-23 11:15:00
5:35 AM,-9.4,-14.8,77,30.12,10.0,Calm,Calm,-,N/A,,Overcast,0,2013-01-23 11:35:00
5:55 AM,-9.4,-14.8,77,30.12,10.0,Calm,Calm,-,N/A,,Overcast,0,2013-01-23 11:55:00
6:15 AM,-9.4,-14.8,77,30.12,10.0,Calm,Calm,-,N/A,,Overcast,0,2013-01-23 12:15:00
6:35 AM,-7.6,-13.0,77,30.12,10.0,Calm,Calm,-,N/A,,Overcast,0,2013-01-23 12:35:00
6:55 AM,-7.6,-13.0,77,30.11,10.0,Calm,Calm,-,N/A,,Overcast,0,2013-01-23 12:55:00
7:15 AM,-5.8,-11.2,77,30.10,10.0,Calm,Calm,-,N/A,,Overcast,0,2013-01-23 13:15:00
7:35 AM,-5.8,-9.4,84,30.09,10.0,Calm,Calm,-,N/A,,Overcast,0,2013-01-23 13:35:00
7:55 AM,-2.2,-7.6,78,30.09,10.0,WSW,3.5,-,N/A,,Overcast,250,2013-01-23 13:55:00
8:15 AM,-0.4,-5.8,78,30.09,10.0,West,4.6,-,N/A,,Overcast,260,2013-01-23 14:15:00
8:35 AM,-0.4,-5.8,78,30.08,7.0,West,3.5,-,N/A,,Overcast,260,2013-01-23 14:35:00
8:55 AM,1.4,-5.8,72,30.09,5.0,West,4.6,-,N/A,,Haze,270,2013-01-23 14:55:00
9:15 AM,1.4,-5.8,72,30.09,5.0,West,5.8,-,N/A,,Haze,260,2013-01-23 15:15:00
9:35 AM,3.2,-4.0,72,30.09,5.0,WSW,6.9,-,N/A,,Haze,250,2013-01-23 15:35:00
9:55 AM,3.2,-4.0,72,30.08,3.0,WSW,6.9,-,N/A,Snow,Light Snow,250,2013-01-23 15:55:00
10:15 AM,3.2,-4.0,72,30.08,5.0,West,6.9,-,N/A,,Haze,280,2013-01-23 16:15:00
10:35 AM,5.0,-2.2,72,30.08,5.0,West,6.9,-,N/A,,Haze,260,2013-01-23 16:35:00
10:55 AM,5.0,-0.4,78,30.07,7.0,West,5.8,-,N/A,,Overcast,280,2013-01-23 16:55:00
11:15 AM,6.8,-0.4,72,30.07,7.0,West,4.6,-,N/A,,Overcast,260,2013-01-23 17:15:00
11:35 AM,8.6,-0.4,67,30.05,5.0,West,5.8,-,N/A,,Haze,270,2013-01-23 17:35:00
11:55 AM,10.4,-0.4,62,30.04,10.0,WNW,5.8,-,N/A,,Overcast,290,2013-01-23 17:55:00
12:15 PM,10.4,1.4,67,30.03,10.0,West,10.4,-,N/A,,Overcast,260,2013-01-23 18:15:00
12:35 PM,10.4,1.4,67,30.02,7.0,West,8.1,-,N/A,,Overcast,280,2013-01-23 18:35:00
12:55 PM,10.4,1.4,67,30.01,10.0,West,6.9,-,N/A,,Overcast,260,2013-01-23 18:55:00
1:15 PM,12.2,-0.4,57,30.00,10.0,West,10.4,-,N/A,,Overcast,280,2013-01-23 19:15:00
1:35 PM,14.0,1.4,57,30.00,10.0,West,10.4,18.4,N/A,,Overcast,280,2013-01-23 19:35:00
1:55 PM,12.2,1.4,62,30.00,10.0,West,12.7,-,N/A,,Overcast,270,2013-01-23 19:55:00
2:15 PM,12.2,3.2,67,30.00,5.0,West,10.4,-,N/A,,Haze,280,2013-01-23 20:15:00
2:35 PM,12.2,5.0,73,30.02,1.8,WNW,9.2,-,N/A,Snow,Light Snow,290,2013-01-23 20:35:00
2:55 PM,12.2,1.4,62,30.02,7.0,WNW,15.0,18.4,N/A,,Overcast,300,2013-01-23 20:55:00
3:15 PM,12.2,3.2,67,30.04,2.5,NW,13.8,19.6,N/A,Snow,Light Snow,310,2013-01-23 21:15:00
3:35 PM,10.4,1.4,67,30.05,5.0,NNW,9.2,23.0,N/A,,Haze,340,2013-01-23 21:35:00
3:55 PM,10.4,-2.2,57,30.07,5.0,NNW,16.1,24.2,N/A,Snow,Light Snow,330,2013-01-23 21:55:00
4:15 PM,8.6,-0.4,67,30.09,7.0,NNW,15.0,21.9,N/A,,Overcast,340,2013-01-23 22:15:00
4:35 PM,8.6,1.4,73,30.11,3.0,NNW,17.3,25.3,N/A,Snow,Light Snow,340,2013-01-23 22:35:00
4:55 PM,8.6,-4.0,57,30.12,10.0,NNW,10.4,-,N/A,,Overcast,340,2013-01-23 22:55:00
5:15 PM,6.8,-0.4,72,30.15,4.0,NNW,11.5,21.9,N/A,Snow,Light Snow,340,2013-01-23 23:15:00
5:35 PM,5.0,-0.4,78,30.17,10.0,NNW,16.1,23.0,N/A,,Mostly Cloudy,340,2013-01-23 23:35:00
5:55 PM,5.0,-2.2,72,30.19,5.0,North,12.7,21.9,N/A,,Haze,350,2013-01-23 23:55:00
6:15 PM,3.2,-5.8,66,30.21,10.0,NNW,15.0,24.2,N/A,,Clear,340,2013-01-24 00:15:00
6:35 PM,3.2,-7.6,61,30.22,10.0,North,17.3,25.3,N/A,,Clear,350,2013-01-24 00:35:00
6:55 PM,1.4,-7.6,66,30.25,10.0,NNW,12.7,23.0,N/A,,Clear,340,2013-01-24 00:55:00
7:15 PM,1.4,-9.4,61,30.27,10.0,NNW,10.4,21.9,N/A,,Clear,340,2013-01-24 01:15:00
7:55 PM,-0.4,-9.4,66,30.30,10.0,NNW,12.7,23.0,N/A,,Clear,340,2013-01-24 01:55:00
8:15 PM,-0.4,-7.6,72,30.30,10.0,NNW,12.7,-,N/A,,Clear,340,2013-01-24 02:15:00
8:35 PM,-0.4,-7.6,72,30.32,10.0,NNW,10.4,16.1,N/A,,Clear,340,2013-01-24 02:35:00
8:55 PM,-0.4,-9.4,66,30.33,10.0,NNW,10.4,-,N/A,,Clear,340,2013-01-24 02:55:00
9:15 PM,-0.4,-9.4,66,30.34,10.0,North,8.1,-,N/A,,Clear,350,2013-01-24 03:15:00
9:35 PM,-2.2,-9.4,71,30.34,10.0,North,9.2,-,N/A,,Clear,350,2013-01-24 03:35:00
9:55 PM,-2.2,-9.4,71,30.36,10.0,NNW,8.1,-,N/A,,Clear,340,2013-01-24 03:55:00
10:15 PM,-2.2,-9.4,71,30.37,10.0,NNW,8.1,-,N/A,,Clear,340,2013-01-24 04:15:00
10:35 PM,-4.0,-9.4,78,30.38,10.0,NNW,6.9,-,N/A,,Clear,340,2013-01-24 04:35:00
10:55 PM,-4.0,-9.4,78,30.39,10.0,NNW,4.6,-,N/A,,Clear,330,2013-01-24 04:55:00
11:15 PM,-4.0,-9.4,78,30.41,10.0,North,8.1,-,N/A,,Clear,350,2013-01-24 05:15:00
11:35 PM,-4.0,-9.4,78,30.42,10.0,NNW,4.6,-,N/A,,Clear,340,2013-01-24 05:35:00
11:55 PM,-4.0,-9.4,78,30.42,10.0,North,4.6,-,N/A,,Clear,350,2013-01-24 05:55:00